Location: Unspecified
(0.0000°N, 0.0000°E)
Time: 11:44:38
(UTC+00:00)

Explorer 11/Cluster Stage 4 - Pass Details

Date: 09 October 2020
Orbit: 467 x 1258 km, 28.8° (Epoch: 28 October)

Event Time Altitude Azimuth Distance (km) Brightness Sun altitude
Rises 15:33:56 0° 238° (WSW) 3,464 10.8 33.0°
Reaches altitude 10° 15:36:47 10° 236° (WSW) 2,384 10.2 32.3°
Maximum altitude 15:42:21 79° 149° (SSE) 689 6.8 31.0°
Drops below altitude 10° 15:46:45 10° 63° (ENE) 1,900 8.1 29.9°
Sets 15:48:49 0° 62° (ENE) 2,709 8.8 29.4°
